Regional Weather Roundup
Issued by NWS

Home | Current Version | Previous Version | Graphics & Text | Print | Product List | Glossary On
Versions: 1 2 3 4 5 6 7 8 9 10 11 12 13 14 15 16 17 18 19 20 21 22 23 24 25 26 27 28 29 30 31 32 33 34 35 36 37 38 39 40 41 42 43 44 45 46 47 48 49 50
000
ASUS43 KLSX 271059
RWRMO

WEATHER SUMMARY FOR MISSOURI
NATIONAL WEATHER SERVICE SPRINGFIELD MO
600 AM CDT MON APR 27 2015

NOTE: "FAIR" INDICATES FEW OR NO CLOUDS BELOW 12,000 FEET WITH NO
       SIGNIFICANT WEATHER AND/OR OBSTRUCTIONS TO VISIBILITY.
       CURRENT SKY AND/OR WEATHER CONDITIONS ARE NOT AVAILABLE FOR
       CHILLICOTHE AND FARMINGTON.

MOZ001>031-035>038-043-044-053-054-271200-
...NORTHERN AND WESTERN MISSOURI...

CITY           SKY/WX    TMP DP  RH WIND       PRES   REMARKS
KANSAS CTY INT CLOUDY    43  36  76 NE5       30.09R
KANSAS C DTWN  CLOUDY    46  35  65 NE3       30.09R
LEE`S SUMMIT   CLOUDY    44  36  73 E6        30.08R
ST JOSEPH      MOCLDY    40  34  79 N6        30.11R
CHILLICOTHE      N/A     38  35  89 CALM      30.11R
KIRKSVILLE     CLEAR     39  34  82 N5        30.10S

$$
MOZ066>068-077>081-088>096-101>105-271200-
...SOUTHWEST MISSOURI...

CITY           SKY/WX    TMP DP  RH WIND       PRES   REMARKS
SPRINGFIELD    CLOUDY    47  36  65 E7        30.03R
JOPLIN         CLOUDY    48  39  71 NE9       30.00F

$$
MOZ032>034-039>042-045>050-055>058-069>072-271200-
...CENTRAL MISSOURI...

CITY           SKY/WX    TMP DP  RH WIND       PRES   REMARKS
COLUMBIA       MOCLDY    41  36  82 NE6       30.06R
JEFFERSON CITY CLOUDY    41  36  82 CALM      30.07R
ROLLA          CLOUDY    44  32  62 NE9       30.02R
SEDALIA        MOCLDY    44  35  70 NE5       30.07R
OSAGE BEACH    CLOUDY    43  36  75 CALM      30.04R

$$
MOZ051-052-059>065-271200-
...EAST CENTRAL MISSOURI...

CITY           SKY/WX    TMP DP  RH WIND       PRES   REMARKS
ST LOUIS INTL  MOCLDY    43  33  68 N5        30.06R
SPIRIT OF STL  MOCLDY    37  35  92 CALM      30.06R
ST CHARLES     PTCLDY    43  33  68 N3        30.06R

$$
MOZ072>076-082>087-097>100-106>115-271200-
...SOUTH CENTRAL AND SOUTHEAST MISSOURI...

CITY           SKY/WX    TMP DP  RH WIND       PRES   REMARKS
CAPE GIRARDEAU MOCLDY    45  34  65 NE9       30.01R
FARMINGTON     CLOUDY    43  32  65 N5        30.06R
POPLAR BLUFF   CLOUDY    47  36  65 N8        30.00R
WEST PLAINS    CLOUDY    44  34  67 NE5       30.01R

$$


USA.gov is the U.S. government's official web portal to all federal, state and local government web resources and services.